Home   Weather   Boston   Past weeks
Flag for USA

Past Weather in Boston, Massachusetts, USA — Yesterday and Last 2 Weeks

Now
39 °F

Passing clouds.


Feels Like: 33 °F
Forecast: 41 / 29 °F
Wind: 8 mph from Northwest

Location: Logan International Airport

Current Time: Feb 22, 2019 at 10:01:19 pm

Latest Report: Feb 22, 2019 at 8:54 pm


Visibility: 10 mi

Pressure: 30.39 "Hg

Humidity: 48%

Dew Point: 21 °F

Location of BostonLocation

Past Weather in Boston — Graph

°F

Boston Temperature Yesterday

Maximum temperature yesterday: 47 °F (at 2:54 pm)
Minimum temperature yesterday: 27 °F (at 1:01 am)
Average temperature yesterday: 36 °F

High & Low Weather Summary for the Past Weeks

 TemperatureHumidityPressure
High55 °F (Feb 8, 2:54 pm)96% (Feb 7, 11:54 pm)30.63 "Hg (Feb 7, 11:54 pm)
Low18 °F (Feb 19, 6:54 am)18% (Feb 9, 3:54 pm)29.47 "Hg (Feb 13, 4:54 am)
Average34 °F60%30.07 "Hg
* Reported Feb 7 8:41 pm — Feb 22 8:54 pm, Boston. Weather by CustomWeather, © 2019

Note: Actual official high and low records may vary slightly from our data, if they occured in-between our weather recording intervals... More about our weather records

Advertising

Boston Weather History for the Previous 24 Hours

Scroll right to see more
 ConditionsComfort  
Time TempWeatherWind HumidityBarometerVisibility
8:54 pm
Fri, Feb 22
39 °FPassing clouds.8 mph48%30.39 "Hg10 mi
7:54 pm41 °FPassing clouds.8 mph43%30.37 "Hg10 mi
6:54 pm42 °FPassing clouds.9 mph43%30.37 "Hg10 mi
5:54 pm43 °FPassing clouds.8 mph42%30.33 "Hg10 mi
4:54 pm44 °FMostly cloudy.9 mph41%30.32 "Hg10 mi
3:54 pm45 °FMostly cloudy.10 mph37%30.29 "Hg10 mi
2:54 pm46 °FPartly sunny.8 mph35%30.27 "Hg10 mi
1:54 pm44 °FBroken clouds.8 mph38%30.27 "Hg10 mi
11:54 am42 °FBroken clouds.12 mph43%30.31 "Hg10 mi
10:54 am42 °FPartly sunny.13 mph43%30.29 "Hg10 mi
9:54 am41 °FBroken clouds.9 mph47%30.28 "Hg10 mi
8:54 am40 °FBroken clouds.12 mph49%30.26 "Hg10 mi
7:54 am39 °FBroken clouds.8 mph50%30.24 "Hg10 mi
6:54 am39 °FPartly sunny.7 mph53%30.22 "Hg10 mi
5:54 am39 °FPassing clouds.9 mph50%30.19 "Hg10 mi
4:54 am40 °FPassing clouds.6 mph47%30.16 "Hg10 mi
3:54 am40 °FMostly cloudy.9 mph49%30.12 "Hg10 mi
2:54 am40 °FPassing clouds.7 mph49%30.10 "Hg10 mi
1:54 am40 °FPassing clouds.9 mph47%30.08 "Hg10 mi
12:54 am40 °FPassing clouds.7 mph55%30.04 "Hg10 mi
11:54 pm
Thu, Feb 21
41 °FPassing clouds.8 mph53%30.02 "Hg10 mi
10:54 pm41 °FPassing clouds.5 mph51%30.00 "Hg10 mi
Weather by CustomWeather, © 2019

See weather overview